Location: Street
(51.1247°N, 2.7429°W)
Time: 10:15:08
(UTC+01:00)

UWE-3 - Pass Details

Date: 06 April 2023
Orbit: 576 x 669 km, 97.7° (Epoch: 02 June)

Event Time Altitude Azimuth Distance (km) Brightness Sun altitude
Rises 05:41:43 0° 3° (N) 2,969 ? -9.0°
Reaches altitude 10° 05:44:30 10° 345° (NNW) 2,036 ? -8.6°
Maximum altitude 05:47:33 19° 302° (WNW) 1,521 ? -8.2°
Drops below altitude 10° 05:50:32 10° 258° (WSW) 1,984 ? -7.8°
Enters shadow 05:50:38 10° 257° (WSW) 2,013 ? -7.7°
